Content
SEND FEEDBACK

Daily
Averages
Monthly
Summary
Canada

CORNER BROOK, NEWFOUNDLAND


Home > North America > Canada > Newfoundland
Elevation: 16 feet     Latitude: 48 57N     Longitude: 057 57W

WEATHER
 
SELECT A DAY
Number of Records: 183,775;   Date Range: 1/1/95 - 10/19/14
 
SHARE

PRINT THIS DATA

[ ← Previous Day ]
WEATHER ALMANAC - MAY 25, 2013
[ Next Day → ]
[ °C ]   °F
Weather ElementAverageHighLow
Temperature52.7 °F71.6 °F (9:30 am)35.6 °F (11:30 pm)
Dewpoint48.2 °F60.8 °F (12:30 pm)35.6 °F (8:30 pm)
Humidity85.3 %100 % (5:30 pm)56 % (9:30 am)
Barometer30.09 in30.31 in (11:30 pm)29.93 in (1:30 am)
Wind Speed13.8 mph26.5 mph (9:30 am)
Wind Gust35.7 mph (9:30 am)
Weather ElementAverage
Visibility10 mi
Wind DirectionESE (117.5 °)

Weather ElementTotal
Precipitation---
Heating Degree Days11.4 (Base 65)
Growing Degree Days3.6 (Base 50)
Averaged from 28 records on May 25, 2013
WEATHER CONDITIONS BREAKOUT
WIND DIRECTION BREAKOUT
WEATHER BY HOUR - MAY 25, 2013
[ °C ]   °F
Local TimeTemperatureDewpointHumidityBarometerVisibilityWind DirectionWind SpeedGust SpeedPrecipitationEventsConditions
1:30 AM62.6 °F57.2 °F82 %29.93 in15.0 miSSW (210°)6.9 mphMostly Cloudy
2:30 AM60.8 °F57.2 °F88 %29.93 in15.0 miSSW (210°)5.8 mphMostly Cloudy
3:30 AM61.0 °F56.0 °F80 %29.94 in15.0 miSouth (170°)6.9 mphMostly Cloudy
3:30 AM60.8 °F57.2 °F88 %29.94 in15.0 miSouth (170°)6.9 mphMostly Cloudy
4:30 AM60.8 °F55.4 °F82 %29.94 in15.0 miSW (230°)5.8 mphMostly Cloudy
5:30 AM60.8 °F55.4 °F82 %29.94 in15.0 miSW (230°)6.9 mphMostly Cloudy
6:30 AM60.8 °F57.2 °F88 %29.95 in15.0 miSSW (210°)9.2 mphMostly Cloudy
7:30 AM62.6 °F57.2 °F82 %29.96 in15.0 miSSW (200°)8.1 mphMostly Cloudy
8:30 AM68.0 °F57.2 °F68 %29.98 in15.0 miSSW (210°)19.6 mphMostly Cloudy
9:30 AM71.0 °F58.0 °F56 %29.99 in15.0 miSSW (200°)23.0 mphPartly Cloudy
9:30 AM71.6 °F59.0 °F64 %29.99 in15.0 miSSW (200°)26.5 mph35.7 mphMostly Cloudy
11:30 AM69.8 °F59.0 °F68 %30.01 in15.0 miSSW (210°)19.6 mphMostly Cloudy
12:30 PM71.6 °F60.8 °F69 %30.00 in15.0 miSouth (180°)13.8 mph28.8 mphMostly Cloudy
1:26 PM69.8 °F60.8 °F73 %30.00 in10.0 miSSW (210°)24.2 mph32.2 mphRainLight Rain
2:30 PM57.2 °F51.8 °F82 %30.06 in10.0 miNorth (10°)15.0 mph21.9 mphRainLight Rain
3:30 PM44.0 °F44.0 °F98 %30.12 in6.0 miNNE (30°)13.8 mphRainLight Rain
3:30 PM44.6 °F42.8 °F93 %30.12 in6.0 miNNE (30°)11.5 mph21.9 mphRainLight Rain
4:30 PM42.8 °F41.0 °F93 %30.17 in3.0 miNNE (30°)15.0 mph23.0 mphRainLight Rain
5:30 PM39.2 °F39.2 °F100 %30.19 in3.0 miNE (40°)19.6 mph26.5 mphRainLight Rain
6:30 PM39.2 °F37.4 °F93 %30.22 in3.0 miNE (50°)15.0 mph20.7 mphRainLight Rain
7:30 PM37.4 °F37.4 °F100 %30.23 in3.0 miNE (50°)15.0 mph23.0 mphRainLight Rain
8:30 PM37.4 °F35.6 °F93 %30.26 in6.0 miNorthRainLight Rain Showers
8:54 PM37.4 °F35.6 °F93 %30.26 in6.0 miNE (40°)17.3 mphOvercast
9:30 PM37.0 °F36.0 °F93 %30.28 in7.0 miNE (40°)15.0 mphRainLight Rain Showers
9:30 PM37.4 °F35.6 °F93 %30.28 in7.0 miNNE (30°)11.5 mph21.9 mphOvercast
10:30 PM37.4 °F35.6 °F93 %30.29 in8.0 miNE (40°)15.0 mph21.9 mphOvercast
10:41 PM37.4 °F35.6 °F93 %30.30 in5.0 miNE (40°)15.0 mphLight Drizzle
11:30 PM35.6 °F35.6 °F100 %30.31 in3.0 miNNE (20°)10.4 mph20.7 mphLight Drizzle
Hourly data recorded from CYDF, located miles away from Corner Brook, Newfoundland







STORIES FROM OUR PARTNERS